[[{"header":{"parameterUnit":"m.s-1","parameterCategory":1,"la1":30.2991,"la2":30.254,"lo1":-89.0895,"lo2":-89.0444,"dy":0.0017,"dx":0.0017,"nx":28,"ny":28,"refTime":"2025-02-11T09:00:00:Z","depth":0,"parameterNumber":2,"parameterNumberName":"U-component_of_WINDS"},"data":[0,0,0,0,0,0,0,0,0,0,0,0,0,0,0,0,0,0,0,0,0,0,0,0,0,0,0,0,0,0,0,0,0,0,0,0,0,0,0,0,0,0,0,0,0,0,0,0,0,0,0,0,0,0,0,0,0,0,1.7161,1.7161,0,1.7118,1.7118,1.7117,1.7064,1.7063,1.7062,1.7061,1.7019,1.7018,1.7018,0,0,0,0,0,0,0,0,0,0,0,0,0,1.7199,1.7199,1.7161,1.7161,1.716,1.7118,1.7118,1.7117,1.7064,1.7063,1.7062,1.7061,1.7019,1.7018,1.7018,0,0,0,0,0,0,0,0,0,0,0,0,0,1.7172,1.7199,1.7161,1.7129,1.7125,1.7118,1.7118,1.7117,1.7064,1.7063,1.7062,1.706,1.7019,1.7019,1.7018,1.704,0,0,1.7016,1.7016,0,0,0,0,0,0,0,0,1.7174,1.7171,1.7134,1.7131,1.7127,1.7095,1.7115,1.7091,1.7064,1.7087,1.7061,1.706,1.7045,1.7043,1.7037,1.7038,1.7036,1.7016,1.7016,1.7016,1.7016,0,0,0,0,0,0,0,1.7176,1.7172,1.7144,1.7134,1.7129,1.7117,1.7111,1.7111,1.7074,1.7085,1.7081,1.7077,1.7043,1.7038,1.7036,1.7036,1.7016,1.7016,1.7016,1.7015,1.7053,1.7054,0,0,0,0,0,0,1.7182,1.7174,1.7146,1.7143,1.7148,1.7117,1.7111,1.7107,1.7074,1.7068,1.7078,1.7075,1.7039,1.7037,1.7034,1.7058,1.7016,1.7015,1.7015,1.7052,1.7053,1.7055,0,0,0,0,0,0,1.7183,1.718,1.7147,1.7158,1.7152,1.7118,1.7113,1.7106,1.7101,1.7068,1.7062,1.7079,1.7038,1.7035,1.7039,1.7056,1.7015,1.7015,1.705,1.7052,1.7054,1.7105,0,0,0,0,0,0,1.7185,1.7181,1.7189,1.7158,1.7152,1.7153,1.7114,1.7107,1.71,1.7095,1.7068,1.7062,1.7037,1.704,1.7039,1.7054,1.7014,1.7048,1.7051,1.7053,1.7102,1.7109,1.7115,0,0,0,0,0,1.7186,1.7205,1.7189,1.7186,1.7161,1.7154,1.715,1.7121,1.7102,1.7109,1.7088,1.7063,1.7054,1.7041,1.7039,1.7054,1.7047,1.705,1.7053,1.7099,1.7108,1.7115,0,0,0,0,0,0,1.7239,1.7201,1.7183,1.7192,1.7177,1.7145,1.7153,1.713,1.712,1.7116,1.708,1.7075,1.7083,1.7069,1.7055,1.7074,1.7047,1.705,1.7083,1.709,1.7097,1.71,1.7014,0,0,0,0,0,1.7252,1.7249,1.7216,1.7227,1.722,1.7188,1.7184,1.7163,1.7145,1.7138,1.7118,1.7102,1.7096,1.7092,1.7085,1.71,1.7093,1.711,1.7116,1.7122,1.7124,1.7131,1.7138,1.7064,1.7064,1.7064,0,0,1.7278,1.7257,1.7257,1.7237,1.7223,1.7221,1.7183,1.7183,1.7181,1.7138,1.7141,1.7125,1.7106,1.7115,1.7119,1.7104,1.7143,1.7125,1.713,1.7129,1.7135,1.7142,1.7148,1.7066,1.7066,1.7065,0,0,1.7325,1.7309,1.7317,1.7303,1.7281,1.7259,1.7261,1.7233,1.7221,1.7222,1.7191,1.7188,1.7178,1.7165,1.7158,1.72,1.7176,1.7199,1.7232,1.7239,1.7245,1.725,1.7264,1.727,1.7202,1.7202,1.7202,0,1.7361,1.7356,1.7324,1.7325,1.7317,1.7279,1.7286,1.7275,1.7252,1.7248,1.7232,1.7218,1.7202,1.7208,1.7218,1.7214,1.7215,1.7202,1.7246,1.7251,1.7255,1.7269,1.7275,1.7205,1.7204,1.7204,1.7204,0,1.7401,1.7398,1.7407,1.7385,1.7379,1.7383,1.7352,1.735,1.7329,1.731,1.7312,1.7292,1.7279,1.7279,1.7259,1.7282,1.7274,1.7253,1.7224,1.7266,1.7278,1.7283,1.7209,1.7208,1.7207,1.7206,0,0,1.7479,1.744,1.7443,1.7433,1.7406,1.7404,1.7407,1.7394,1.7392,1.7378,1.738,1.7372,1.7353,1.7344,1.7322,1.7329,1.7363,1.7306,1.7305,1.7317,1.7387,1.7403,1.741,1.7348,1.7348,1.7349,1.7389,0,1.7521,1.7523,1.7494,1.7505,1.7502,1.7465,1.7468,1.7452,1.7434,1.743,1.741,1.7405,1.7379,1.7374,1.7379,1.7358,1.7377,1.7355,1.7349,1.7349,1.7354,1.7416,1.7433,1.7471,1.7394,1.7394,1.7395,0,1.7569,1.7557,1.7567,1.754,1.7537,1.754,1.7526,1.7522,1.7504,1.749,1.7481,1.7456,1.7458,1.7431,1.7433,1.7419,1.7415,1.7405,1.7405,1.7403,1.7374,1.7415,1.7483,1.7488,1.7402,1.7402,1.7401,0,1.7625,1.7611,1.7615,1.7608,1.7576,1.7579,1.7566,1.7546,1.754,1.7529,1.7524,1.7513,1.7507,1.7499,1.7472,1.7456,1.7477,1.7449,1.7466,1.7467,1.7472,1.7472,1.7539,1.7471,1.747,1.747,1.747,0,1.7674,1.7681,1.764,1.7642,1.765,1.7617,1.7626,1.7609,1.7592,1.7591,1.7559,1.7559,1.7524,1.752,1.7499,1.7503,1.7501,1.749,1.7485,1.7493,1.7494,1.7489,1.7486,1.7472,1.7472,1.7471,1.7471,0,1.7736,1.7709,1.7711,1.7681,1.7674,1.7681,1.7655,1.7656,1.7637,1.7636,1.7634,1.7603,1.7597,1.7569,1.7557,1.7543,1.7554,1.7543,1.756,1.7556,1.7575,1.7574,1.7641,1.7648,1.7576,1.7577,1.7577,0,1.7769,1.7774,1.7745,1.7741,1.773,1.7725,1.7719,1.7688,1.7682,1.7662,1.7666,1.7657,1.7648,1.764,1.7617,1.7607,1.7595,1.762,1.7593,1.7601,1.7595,1.7595,1.7595,1.7625,1.7626,1.7627,1.7627,0,1.783,1.7816,1.7808,1.7796,1.7789,1.7778,1.7765,1.7764,1.7729,1.7726,1.7718,1.7712,1.7699,1.769,1.7677,1.7664,1.764,1.7636,1.7639,1.7647,1.7657,1.7651,1.7575,1.7634,1.7634,1.7633,1.7633,1.7632,1.7878,1.788,1.786,1.7852,1.7839,1.7828,1.7828,1.7808,1.7801,1.7788,1.777,1.7765,1.7747,1.7726,1.7715,1.7711,1.7698,1.7703,1.7704,1.7706,1.771,1.7658,1.7709,1.7709,1.7709,1.7708,1.7708,0,1.7936,1.7921,1.7915,1.7897,1.7892,1.787,1.7854,1.7851,1.7847,1.7832,1.7824,1.7816,1.7808,1.7784,1.7773,1.7775,1.7764,1.7773,1.7772,1.777,1.7723,1.772,1.7782,1.7782,1.7782,1.7782,1.7782,1.7782,1.7966,1.7969,1.7953,1.7949,1.7935,1.7929,1.7922,1.7912,1.7899,1.7892,1.7885,1.7869,1.7851,1.7839,1.783,1.7824,1.7821,1.7834,1.7824,1.778,1.7773,1.7766,1.7764,1.7834,1.7834,1.7871,1.7871,1.7872]},{"header":{"parameterUnit":"m.s-1","parameterCategory":1,"la1":30.2991,"la2":30.254,"lo1":-89.0895,"lo2":-89.0444,"dy":0.0017,"dx":0.0017,"nx":28,"ny":28,"refTime":"2025-02-11T09:00:00:Z","depth":0,"parameterNumber":3,"parameterNumberName":"V-component_of_WINDS"},"data":[0,0,0,0,0,0,0,0,0,0,0,0,0,0,0,0,0,0,0,0,0,0,0,0,0,0,0,0,0,0,0,0,0,0,0,0,0,0,0,0,0,0,0,0,0,0,0,0,0,0,0,0,0,0,0,0,0,0,6.7733,6.7735,0,6.7924,6.7926,6.7928,6.7969,6.7968,6.7967,6.7965,6.8162,6.8168,6.8174,0,0,0,0,0,0,0,0,0,0,0,0,0,6.7408,6.7414,6.7733,6.7736,6.7738,6.7923,6.7926,6.7928,6.797,6.7968,6.7966,6.7965,6.8159,6.8167,6.8175,0,0,0,0,0,0,0,0,0,0,0,0,0,6.7569,6.7415,6.7733,6.7781,6.7787,6.7923,6.7926,6.7929,6.797,6.7968,6.7966,6.7964,6.8157,6.8166,6.8176,6.8278,0,0,6.8206,6.821,0,0,0,0,0,0,0,0,6.7559,6.7581,6.7771,6.7778,6.7785,6.7921,6.7883,6.8046,6.797,6.7901,6.7965,6.7963,6.8083,6.8099,6.8139,6.8287,6.8295,6.8207,6.8213,6.8217,6.822,0,0,0,0,0,0,0,6.7548,6.7573,6.7809,6.7774,6.7782,6.7794,6.7814,6.7914,6.8001,6.7906,6.791,6.7932,6.8086,6.813,6.8144,6.8298,6.8206,6.8215,6.8221,6.8225,6.8541,6.8544,0,0,0,0,0,0,6.7528,6.7563,6.7802,6.7814,6.7665,6.7801,6.7824,6.7879,6.8,6.8017,6.7933,6.7933,6.8114,6.8133,6.8151,6.828,6.8217,6.8226,6.8232,6.8539,6.8542,6.8545,0,0,0,0,0,0,6.7521,6.7549,6.7795,6.769,6.7722,6.7809,6.787,6.7884,6.7927,6.8021,6.8036,6.7961,6.8113,6.8137,6.8246,6.8287,6.823,6.8239,6.8536,6.854,6.8543,6.8537,0,0,0,0,0,0,6.7512,6.7547,6.7586,6.769,6.7727,6.7886,6.7873,6.7889,6.7944,6.7945,6.8051,6.8067,6.8113,6.8232,6.8256,6.83,6.8247,6.8533,6.8538,6.8542,6.8534,6.854,6.8546,0,0,0,0,0,6.75,6.7576,6.7587,6.7616,6.7778,6.7888,6.791,6.7961,6.7947,6.7987,6.8048,6.8063,6.8278,6.8242,6.827,6.8317,6.853,6.8536,6.8542,6.8532,6.8539,6.8545,0,0,0,0,0,0,6.7474,6.7591,6.7604,6.7716,6.7792,6.7895,6.7948,6.7967,6.8049,6.8047,6.8108,6.8132,6.8238,6.8288,6.8246,6.8423,6.8404,6.8415,6.8387,6.8395,6.84,6.8386,6.8255,0,0,0,0,0,6.7481,6.7561,6.7659,6.7748,6.7786,6.786,6.791,6.7944,6.8025,6.8057,6.8125,6.8204,6.8289,6.8345,6.8428,6.8541,6.8566,6.8588,6.8593,6.8597,6.8607,6.8673,6.8684,6.8564,6.8563,6.8563,0,0,6.7498,6.7571,6.7618,6.7745,6.7808,6.789,6.7887,6.7973,6.8035,6.807,6.8178,6.8231,6.8322,6.8434,6.8487,6.848,6.8646,6.8605,6.8607,6.8615,6.868,6.8691,6.8701,6.8567,6.8567,6.8566,0,0,6.7569,6.7632,6.7715,6.7777,6.7872,6.7921,6.7941,6.8041,6.8078,6.8186,6.8215,6.829,6.8435,6.85,6.8552,6.8649,6.8668,6.8675,6.8705,6.8768,6.8778,6.8786,6.8823,6.8835,6.8684,6.8684,6.8684,0,6.7578,6.7702,6.7754,6.784,6.7896,6.7931,6.8016,6.8075,6.8192,6.823,6.822,6.8405,6.8469,6.8598,6.8621,6.8662,6.8687,6.8664,6.8772,6.8781,6.879,6.8826,6.8839,6.8684,6.8684,6.8684,6.8684,0,6.7708,6.7794,6.7849,6.7962,6.8024,6.8108,6.8175,6.8231,6.8259,6.831,6.8421,6.8499,6.86,6.8633,6.8661,6.8766,6.8759,6.8759,6.8742,6.8801,6.8836,6.885,6.8685,6.8685,6.8685,6.8684,0,0,6.777,6.791,6.793,6.7982,6.809,6.8158,6.8244,6.8343,6.8391,6.8471,6.8546,6.8669,6.8671,6.873,6.8765,6.882,6.8895,6.8815,6.8818,6.8829,6.9017,6.9017,6.9032,6.8907,6.8909,6.8912,6.901,0,6.7856,6.8012,6.8062,6.8192,6.8273,6.8308,6.8384,6.8458,6.8508,6.8584,6.8639,6.8726,6.8721,6.8757,6.8813,6.8874,6.8934,6.8867,6.8979,6.8982,6.8957,6.905,6.905,6.9139,6.9024,6.9026,6.9028,0,6.7977,6.8059,6.8197,6.8296,6.8332,6.8399,6.8494,6.8566,6.8652,6.8684,6.875,6.8782,6.8875,6.8851,6.8981,6.8935,6.8983,6.902,6.9025,6.9039,6.901,6.9068,6.9169,6.9183,6.9049,6.9047,6.9046,0,6.801,6.8155,6.8257,6.83,6.8417,6.8464,6.8515,6.8599,6.8655,6.8738,6.8776,6.8869,6.892,6.8992,6.9048,6.9025,6.9174,6.9154,6.9205,6.9204,6.9236,6.9234,6.9348,6.9264,6.9264,6.9264,6.9264,0,6.8102,6.8186,6.8274,6.8337,6.8432,6.8489,6.8582,6.8635,6.8709,6.8784,6.8819,6.8889,6.8958,6.9037,6.9081,6.9184,6.9206,6.9236,6.9247,6.9234,6.923,6.9268,6.9264,6.9267,6.9267,6.9266,6.9265,0,6.8156,6.8218,6.8332,6.8433,6.8461,6.8526,6.8614,6.8677,6.8728,6.8822,6.8847,6.8927,6.9022,6.9085,6.9206,6.9236,6.9348,6.9357,6.9319,6.9325,6.9373,6.9368,6.9517,6.954,6.9439,6.944,6.9441,0,6.8211,6.8277,6.8385,6.8438,6.8489,6.8572,6.863,6.8689,6.8748,6.8852,6.8903,6.9,6.9081,6.9231,6.93,6.9393,6.9406,6.9452,6.942,6.9405,6.9409,6.9405,6.9413,6.9457,6.9458,6.9458,6.9459,0,6.8304,6.8331,6.8413,6.8506,6.8574,6.8651,6.8727,6.8768,6.884,6.8905,6.9002,6.9065,6.9189,6.9286,6.9385,6.9439,6.9462,6.9468,6.9485,6.9473,6.945,6.9465,6.9335,6.9465,6.9464,6.9464,6.9464,6.9463,6.8362,6.8422,6.8508,6.8599,6.8662,6.8733,6.8798,6.8857,6.8938,6.9044,6.9074,6.9175,6.9261,6.9397,6.9453,6.9534,6.9529,6.9554,6.956,6.9566,6.9567,6.9435,6.9552,6.9552,6.9552,6.9552,6.9552,0,6.8458,6.8515,6.8597,6.8703,6.8775,6.8789,6.8874,6.8934,6.9023,6.91,6.9179,6.9292,6.9386,6.9463,6.956,6.961,6.9624,6.9634,6.9632,6.9644,6.9565,6.9541,6.9622,6.9622,6.9622,6.9622,6.9622,6.9622,6.8516,6.8619,6.8657,6.8793,6.885,6.895,6.8998,6.9064,6.9126,6.925,6.9328,6.9377,6.9456,6.9559,6.9646,6.9667,6.9702,6.971,6.9733,6.9658,6.965,6.9642,6.962,6.9717,6.9717,6.9807,6.9807,6.9808]}]]